EA5SW-13 Weather Reports


time (UTC)temp
C
wind
direction
speed
KPH
gust
KPH
rain 1hr
cm
rain 24hr
cm
rain mn
cm
humidity
%
barometer
mb
20260505210634 18 0.0 1.6 0.00 0.00 0.00 65
20260505205659 18 0.0 1.6 0.00 0.00 0.00 68
20260505204635 18 0.0 1.6 0.00 0.00 0.00 70
20260505203658 18 0.0 3.2 0.00 0.00 0.00 70
20260505202654 18 0.0 1.6 0.00 0.00 0.00 71
20260505201658 18 0.0 1.6 0.00 0.00 0.00 72
20260505200634 -17 0.0 0.0 0.00 0.00 0.00
20260505195659 19 0.0 3.2 0.00 0.00 0.00 72
20260505194634 19 0.0 3.2 0.00 0.00 0.00 73
20260505193659 20 0.0 1.6 0.00 0.00 0.00 74
20260505192635 20 0.0 3.2 0.00 0.00 0.00 73
20260505191659 20 0.0 1.6 0.00 0.00 0.00 72
20260505190635 21 0.0 3.2 0.00 0.00 0.00 70
20260505185658 22 0.0 1.6 0.00 0.00 0.00 65
20260505184634 23 0.0 1.6 0.00 0.00 0.00 55
20260505183658 25 0.0 1.6 0.00 0.00 0.00 51
20260505182635 26 0.0 1.6 0.00 0.00 0.00 50
20260505181658 26 0.0 1.6 0.00 0.00 0.00 49
20260505180634 27 0.0 1.6 0.00 0.00 0.00 49
20260505175659 26 0.0 1.6 0.00 0.00 0.00 50
20260505174635 26 0.0 1.6 0.00 0.00 0.00 49
20260505173658 26 0.0 1.6 0.00 0.00 0.00 50
20260505172636 24 0.0 1.6 0.00 0.00 0.00 53
20260505171659 25 0.0 1.6 0.00 0.00 0.00 50
20260505170635 26 0.0 3.2 0.00 0.00 0.00 40
20260505165658 26 0.0 1.6 0.00 0.00 0.00 21
20260505164635 27 315 1.6 4.8 0.00 0.00 0.00 20
20260505163659 27 315 0.0 3.2 0.00 0.00 0.00 13
20260505162635 27 117 1.6 3.2 0.00 0.00 0.00 20
20260505161658 27 0.0 3.2 0.00 0.00 0.00 13
20260505160635 27 0 3.2 4.8 0.00 0.00 0.00 13
20260505152635 27 0 0.0 3.2 0.00 0.00 0.00 20
20260505151659 27 315 1.6 3.2 0.00 0.00 0.00 13
20260505150635 27 0 3.2 6.4 0.00 0.00 0.00 20
20260505140634 27 0 6.4 11.3 0.00 0.00 0.00 20
20260505124636 26 338 1.6 3.2 0.00 0.00 0.00 24
20260505123719 26 12 1.6 3.2 0.00 0.00 0.00 24
20260505122635 26 33 3.2 8.0 0.00 0.00 0.00 23
20260505121700 25 315 1.6 12.9 0.00 0.00 0.00 23
20260505120635 25 315 6.4 9.7 0.00 0.00 0.00 23
20260505115719 26 315 3.2 6.4 0.00 0.00 0.00 23
20260505114635 26 0.0 1.6 0.00 0.00 0.00 23
20260505113659 25 0.0 3.2 0.00 0.00 0.00 23
20260505112636 25 327 1.6 3.2 0.00 0.00 0.00 24
20260505111659 24 315 0.0 3.2 0.00 0.00 0.00 24
20260505110636 23 315 3.2 4.8 0.00 0.00 0.00 25
20260505101700 23 315 1.6 3.2 0.00 0.00 0.00 30
20260505100635 23 225 1.6 3.2 0.00 0.00 0.00 31
20260505095747 22 158 1.6 3.2 0.00 0.00 0.00 31
20260505094743 22 0.0 3.2 0.00 0.00 0.00 39
20260505093720 21 0.0 1.6 0.00 0.00 0.00 45
20260505092636 21 0.0 1.6 0.00 0.00 0.00 48
20260505091700 20 0.0 1.6 0.00 0.00 0.00 51
20260505090635 20 0.0 1.6 0.00 0.00 0.00 61
20260505085659 20 0.0 0.0 0.00 0.00 0.00 64
20260505084636 19 0.0 1.6 0.00 0.00 0.00 67
20260505083700 18 0.0 0.0 0.00 0.00 0.00 70
20260505082635 18 0.0 0.0 0.00 0.00 0.00 71
20260505081659 18 0.0 0.0 0.00 0.00 0.00 71
20260505080636 -17 0.0 0.0 0.00 0.00 0.00
20260505075700 17 0.0 0.0 0.00 0.00 0.00 69
20260505074635 17 0.0 0.0 0.00 0.00 0.00 66
20260505073700 17 0.0 1.6 0.00 0.00 0.00 65
20260505072635 17 0.0 3.2 0.00 0.00 0.00 66
20260505071701 17 0.0 0.0 0.00 0.00 0.00 73
20260505070636 17 0.0 1.6 0.00 0.00 0.00 78
20260505065700 17 0.0 1.6 0.00 0.00 0.00 81
20260505064636 16 0.0 1.6 0.00 0.00 0.00 83
20260505063659 16 0.0 0.0 0.00 0.00 0.00 85
20260505062636 16 0.0 0.0 0.00 0.00 0.00 86
20260505061659 16 0.0 0.0 0.00 0.00 0.00 86
20260505060636 16 0.0 0.0 0.00 0.00 0.00 86
20260505055700 16 0.0 0.0 0.00 0.00 0.00 86
20260505054636 15 0.0 0.0 0.00 0.00 0.00 87
20260505053659 15 0.0 0.0 0.00 0.00 0.00 87
20260505052636 15 0.0 0.0 0.00 0.00 0.00 88
20260505051700 15 0.0 1.6 0.00 0.00 0.00 88
20260505050636 16 0.0 0.0 0.00 0.00 0.00 88
20260505041436 16 0.0 0.0 0.00 0.00 0.00 87
20260505040500 16 0.0 0.0 0.00 0.00 0.00 87
20260505035300 16 0.0 0.0 0.00 0.00 0.00 87
20260505034236 16 0.0 0.0 0.00 0.00 0.00 87
20260505033400 16 0.0 0.0 0.00 0.00 0.00 86
20260505032236 16 0.0 0.0 0.00 0.00 0.00 86
20260505031300 16 0.0 0.0 0.00 0.00 0.00 86
20260505030236 16 0.0 0.0 0.00 0.00 0.00 86
20260505030120 16 0.0 0.0 0.00 0.00 0.00 86
20260505025036 16 0.0 0.0 0.00 0.00 0.00 86
20260505024100 16 0.0 0.0 0.00 0.00 0.00 86
20260505023036 16 0.0 0.0 0.00 0.00 0.00 86
20260505022100 16 0.0 0.0 0.00 0.00 0.00 85
20260505021036 17 0.0 0.0 0.00 0.00 0.00 85
20260505020236 17 0.0 1.6 0.00 0.00 0.00 85
20260505015036 17 0.0 1.6 0.00 0.00 0.00 84
20260505014100 17 0.0 0.0 0.00 0.00 0.00 83
20260505013036 17 0.0 0.0 0.00 0.00 0.00 83
20260505012100 17 0.0 0.0 0.00 0.00 0.00 82
20260505011036 17 0.0 0.0 0.00 0.00 0.00 82
20260505010120 17 0.0 1.6 0.00 0.00 0.00 82
20260505005036 17 0.0 0.0 0.00 0.00 0.00 80
20260505004100 17 0.0 0.0 0.00 0.00 0.00 83
20260505003036 17 0.0 0.0 0.00 0.00 0.00 80
20260505002100 17 0.0 0.0 0.00 0.00 0.00 80
20260505001036 17 0.0 0.0 0.00 0.00 0.00 80
20260505000325 17 0.0 0.0 0.00 0.00 0.00 80
20260504235037 17 0.0 0.0 0.00 0.00 0.00 79
20260504234100 17 0.0 0.0 0.00 0.00 0.00 79
20260504233036 17 0.0 1.6 0.00 0.00 0.00 79
20260504232100 17 0.0 0.0 0.00 0.00 0.00 78
20260504231036 18 0.0 0.0 0.00 0.00 0.00 77
20260504230100 18 0.0 0.0 0.00 0.00 0.00 77
20260504225036 18 0.0 0.0 0.00 0.00 0.00 76
20260504224101 18 0.0 0.0 0.00 0.00 0.00 76
20260504223056 18 0.0 1.6 0.00 0.00 0.00 75
20260504222101 18 0.0 0.0 0.00 0.00 0.00 76
20260504221036 18 0.0 1.6 0.00 0.00 0.00 76
20260504220325 18 0.0 0.0 0.00 0.00 0.00 77
20260504215037 18 0.0 1.6 0.00 0.00 0.00 78
20260504214100 18 0.0 1.6 0.00 0.00 0.00 79
20260504213036 18 0.0 1.6 0.00 0.00 0.00 79
20260504212100 18 0.0 0.0 0.00 0.00 0.00 80